Tracking 29892 objects as of 21-Nov-2024
HD Live streaming from Space Station
objects crossing your sky now

THORAD DELTA 1 DEB

Track THORAD DELTA 1 DEB now!
10-day predictions


NORAD ID: 8789
Int'l Code: 1974-089DR
Perigee: 1,434.9 km
Apogee: 1,601.3 km
Inclination: 102.1 °
Period: 116.2 minutes
Semi major axis: 7889 km
RCS: 0.0362 m2 (small)
Launch date: November 15, 1974
Source: United States (US)
Launch site: AIR FORCE WESTERN TEST RANGE (AFWTR)

Note: This is SATELLITE DEBRIS
Your satellite tracking list
Your tracking list is empty




NASA's NSSDC Master Catalog

Two Line Element Set (TLE):
1 08789U 74089DR  24325.79968253 -.00000028  00000-0  12674-3 0  9999
2 08789 102.0725 270.8252 0105451 229.4723 157.8168 12.38966015261435
Source of the keplerian elements: AFSPC